Location: Albany
(35.0170°S, 117.8920°E)
Time: 21:27:17
(UTC+08:00)

A-11 Canister half - Pass Details

Date: 29 January 2021
Orbit: 1525 x 1684 km, 47.3° (Epoch: 03 March)

Event Time Altitude Azimuth Distance (km) Brightness Sun altitude
Rises 01:53:09 0° 293° (WNW) 4,935 - -32.7°
Reaches altitude 10° 01:56:22 10° 289° (WNW) 3,951 - -32.4°
Exits shadow 02:02:29 41° 273° (W) 2,299 9.6 -31.8°
Maximum altitude 02:06:29 65° 208° (SSW) 1,821 9.3 -31.4°
Drops below altitude 10° 02:16:28 10° 126° (SE) 3,898 11.9 -30.4°
Sets 02:19:39 0° 123° (ESE) 4,866 12.6 -30.0°
